Location: Newark
(34.9500°N, 139.9667°E)
Time: 11:06:53
(UTC+00:00)

Vanguard 1 Rocket - Pass Details

Date: 17 December 2019
Orbit: 650 x 4226 km, 34.3° (Epoch: 25 January)

Event Time Altitude Azimuth Distance (km) Brightness Sun altitude
Rises 16:01:57 0° 285° (WNW) 5,791 - -68.1°
Reaches altitude 10° 16:07:00 10° 277° (W) 4,150 - -67.1°
Maximum altitude 16:15:11 30° 221° (SW) 1,980 - -65.6°
Drops below altitude 10° 16:20:18 10° 160° (SSE) 2,524 - -64.6°
Sets 16:22:37 0° 148° (SSE) 3,245 - -64.2°
